User: anonymous   Login
Location: Gleizolles
(44.4833°N, 6.7667°E)
Time: 20:55:05
(UTC+00:00)
Language:

STARS - Orbit

View from above orbital plane
View from above orbital plane
View from above satellite
View from above satellite

Ground track
Ground track

The orbit data is extracted from the following two-line orbital elements,

1 33498U 09002G   24193.82183650  .00004534  00000-0  52776-3 0  9996
2 33498  98.1177 108.5398 0009112 336.7989  23.2813 14.85771712833336
Epoch (UTC): 11 July 2024 19:43:26
Eccentricity: 0.0009112
inclination: 98.1177°
perigee height: 605 km
apogee height: 617 km
right ascension of ascending node: 108.5398°
argument of perigee: 336.7989°
revolutions per day: 14.85771712
mean anomaly at epoch: 23.2813°
orbit number at epoch: 83333

The dashed part of the orbit path shows where the satellite is in the earth's shadow,  

DLR